Location: Alsip
(41.6689°N, 87.7387°W)
Time: 14:13:07
(UTC+00:00)

NOSS 3-2 (A) - Pass Details

Date: 14 July 2020
Orbit: 798 x 1410 km, 63.4° (Epoch: 31 July)

Event Time Altitude Azimuth Distance (km) Brightness Sun altitude
Exits shadow 09:31:03 11° 215° (SW) 2,349 4.9 -9.7°
Maximum altitude 09:36:25 86° 305° (NW) 903 3.4 -8.9°
Drops below altitude 10° 09:42:48 10° 35° (NE) 2,767 7.3 -8.0°
Sets 09:45:36 0° 36° (NE) 3,815 8.4 -7.6°
